TimePDT,TemperatureF,Dew PointF,Humidity,Sea Level PressureIn,VisibilityMPH,Wind Direction,Wind SpeedMPH,Gust SpeedMPH,PrecipitationIn,Events,Conditions,WindDirDegrees,DateUTC
12:56 AM,78.1,35.1,21,29.82,10.0,SSW,15.0,-,N/A,,Mostly Cloudy,200,2011-10-25 07:56:00
1:56 AM,75.9,34.0,22,29.81,10.0,SSW,16.1,-,N/A,,Mostly Cloudy,200,2011-10-25 08:56:00
2:56 AM,75.0,33.1,22,29.81,10.0,SSW,13.8,-,N/A,,Scattered Clouds,200,2011-10-25 09:56:00
3:56 AM,73.0,33.1,23,29.80,10.0,SSW,17.3,-,N/A,,Partly Cloudy,200,2011-10-25 10:56:00
4:56 AM,71.1,33.1,25,29.80,10.0,SSW,12.7,-,N/A,,Partly Cloudy,200,2011-10-25 11:56:00
5:56 AM,70.0,32.0,25,29.81,10.0,South,6.9,-,N/A,,Partly Cloudy,190,2011-10-25 12:56:00
6:56 AM,69.1,32.0,25,29.81,10.0,South,11.5,-,N/A,,Partly Cloudy,180,2011-10-25 13:56:00
7:56 AM,71.1,32.0,24,29.81,10.0,WSW,9.2,-,N/A,,Clear,240,2011-10-25 14:56:00
8:56 AM,75.9,32.0,20,29.81,10.0,SSW,13.8,20.7,N/A,,Clear,200,2011-10-25 15:56:00
9:56 AM,75.9,34.0,22,29.82,10.0,WSW,3.5,-,N/A,,Clear,250,2011-10-25 16:56:00
10:56 AM,81.0,30.9,16,29.81,10.0,SSW,13.8,-,N/A,,Clear,200,2011-10-25 17:56:00
11:56 AM,84.0,28.0,13,29.78,10.0,SSW,16.1,26.5,N/A,,Partly Cloudy,200,2011-10-25 18:56:00
12:56 PM,84.9,28.0,13,29.75,10.0,SW,16.1,25.3,N/A,,Partly Cloudy,220,2011-10-25 19:56:00
1:56 PM,84.9,27.0,12,29.72,10.0,SSW,18.4,32.2,N/A,,Partly Cloudy,210,2011-10-25 20:56:00
2:56 PM,84.9,27.0,12,29.70,10.0,SW,16.1,25.3,N/A,,Scattered Clouds,220,2011-10-25 21:56:00
3:56 PM,84.0,28.0,13,29.69,10.0,SW,17.3,25.3,N/A,,Scattered Clouds,220,2011-10-25 22:56:00
4:56 PM,82.0,28.9,14,29.68,10.0,SW,18.4,23.0,N/A,,Partly Cloudy,220,2011-10-25 23:56:00
5:56 PM,80.1,30.0,16,29.69,10.0,SW,16.1,-,N/A,,Partly Cloudy,220,2011-10-26 00:56:00
6:56 PM,79.0,30.0,17,29.69,10.0,SW,13.8,-,N/A,,Clear,220,2011-10-26 01:56:00
7:56 PM,77.0,30.9,19,29.69,10.0,SW,15.0,-,N/A,,Clear,220,2011-10-26 02:56:00
8:56 PM,75.0,35.1,23,29.69,10.0,SSW,12.7,-,N/A,,Clear,210,2011-10-26 03:56:00
9:56 PM,73.0,37.0,27,29.70,10.0,SSW,11.5,-,N/A,,Clear,200,2011-10-26 04:56:00
10:56 PM,73.0,37.9,28,29.73,10.0,SSW,13.8,-,N/A,,Partly Cloudy,210,2011-10-26 05:56:00
11:06 PM,71.6,37.4,29,29.80,10.0,NE,13.8,21.9,N/A,,Partly Cloudy,40,2011-10-26 06:06:00
11:56 PM,70.0,33.1,26,29.77,10.0,North,8.1,-,N/A,,Scattered Clouds,360,2011-10-26 06:56:00